Weather History for Oakland, MD

Change the Weather History Date:

Tuesday, April 15, 2014

  Actual Average (KMGW) Record (KMGW)
Temperature  
Mean Temperature 38 °F 53 °F  
Max Temperature 55 °F 64 °F 86 °F (1993)
Min Temperature 21 °F 42 °F 22 °F (1957)
Degree Days  
Heating Degree Days 27 13  
Month to date heating degree days 225  
Since 1 July heating degree days 4826  
Cooling Degree Days 0 0  
Month to date cooling degree days 0  
Year to date cooling degree days 2  
Moisture  
Dew Point 34 °F    
Average Humidity 100    
Maximum Humidity 100    
Minimum Humidity 93    
Precipitation  
Precipitation 0.00 in 0.11 in 1.01 in (1983)
Month to date precipitation 1.76  
Year to date precipitation 10.82  
Sea Level Pressure  
Sea Level Pressure 29.76 in    
Wind  
Wind Speed 11 mph (West)    
Max Wind Speed 18 mph    
Max Gust Speed 32 mph    
Visibility 5 miles    
Events Fog    
T = Trace of Precipitation, MM = Missing Value Source: NWS Daily Summary

Daily Weather History Graph

Daily Weather History Graph

Search for Another Location

Airport:

Trip Planner

Search our weather history database for the weather conditions in past years. The results will help you decide how hot, cold, wet, or windy it might be!

Date:

Astronomy

Apr. 15, 2014 Rise Set
Actual Time 6:40 AM EDT 7:55 PM EDT
Civil Twilight 6:12 AM EDT 8:23 PM EDT
Nautical Twilight 5:38 AM EDT 8:56 PM EDT
Astronomical Twilight 5:04 AM EDT 9:31 PM EDT
Moon 8:34 PM EDT (4/15) 6:46 AM EDT (4/15)
Length of Visible Light 14h 11m
Length of Day
13h 15m
Full, 100% of the Moon is Illuminated
Apr 15
Full
Apr 22
Last Quarter
Apr 29
New
May 6
First Quarter
May 14
Full

Hourly Weather History & Observations

Time (EDT) Temp. Windchill Dew Point Humidity Pressure Visibility Wind Dir Wind Speed Gust Speed Precip Events Conditions
1:10 AM 55.4 °F - 55.4 °F 100% 29.73 in 10.0 mi SSE 12.7 mph - N/A   Overcast
2:30 AM 53.6 °F - - N/A% 29.70 in 10.0 mi SSE 12.7 mph - N/A   Mostly Cloudy
2:50 AM 53.6 °F - 53.6 °F 100% 29.69 in 10.0 mi SSE 9.2 mph - N/A   Scattered Clouds
3:10 AM 53.6 °F - - N/A% 29.68 in 10.0 mi SSE 10.4 mph - N/A   Mostly Cloudy
3:30 AM 53.6 °F - - N/A% 29.66 in 10.0 mi SSE 9.2 mph - N/A   Mostly Cloudy
3:50 AM 53.6 °F - - N/A% 29.65 in 10.0 mi SSE 9.2 mph - N/A   Mostly Cloudy
4:10 AM 53.6 °F - - N/A% 29.65 in 10.0 mi SSE 10.4 mph - N/A   Overcast
4:30 AM 53.6 °F - - N/A% 29.64 in 10.0 mi South 11.5 mph - N/A   Overcast
4:50 AM 53.6 °F - 53.6 °F 100% 29.63 in 10.0 mi South 12.7 mph 17.3 mph N/A   Overcast
5:10 AM 53.6 °F - 53.6 °F 100% 29.63 in 10.0 mi South 9.2 mph - N/A   Scattered Clouds
5:30 AM 55.4 °F - 55.4 °F 100% 29.61 in 10.0 mi South 11.5 mph - N/A   Mostly Cloudy
5:50 AM 55.4 °F - 55.4 °F 100% 29.60 in 10.0 mi South 11.5 mph - N/A   Mostly Cloudy
6:10 AM 55.4 °F - 55.4 °F 100% 29.59 in 10.0 mi South 9.2 mph - N/A   Mostly Cloudy
6:50 AM 53.6 °F - 53.6 °F 100% 29.59 in 10.0 mi South 6.9 mph - N/A   Overcast
7:10 AM 53.6 °F - - N/A% 29.59 in 10.0 mi South 8.1 mph - N/A   Overcast
7:30 AM 53.6 °F - - N/A% 29.58 in 10.0 mi South 8.1 mph - N/A   Overcast
7:50 AM 53.6 °F - - N/A% 29.59 in 5.0 mi South 9.2 mph - N/A   Haze
8:10 AM 53.6 °F - - N/A% 29.59 in 10.0 mi South 5.8 mph - N/A   Overcast
8:30 AM 46.4 °F 41.1 °F - N/A% 29.61 in 0.2 mi WNW 11.5 mph 17.3 mph N/A Fog Fog
8:50 AM 42.8 °F 36.6 °F - N/A% 29.62 in 0.2 mi WNW 11.5 mph 18.4 mph N/A Fog Fog
9:10 AM 41.0 °F 32.5 °F - N/A% 29.64 in 0.2 mi WNW 17.3 mph 23.0 mph N/A Fog Fog
9:30 AM 37.4 °F 28.9 °F - N/A% 29.66 in 0.5 mi NW 13.8 mph 26.5 mph N/A Fog Fog
9:50 AM 35.6 °F 29.9 °F - N/A% 29.69 in 0.5 mi NW 6.9 mph 16.1 mph N/A Fog Fog
10:10 AM 35.6 °F 28.6 °F - N/A% 29.70 in 0.2 mi NW 9.2 mph 16.1 mph N/A Fog Fog
10:30 AM 33.8 °F 25.8 °F - N/A% 29.70 in 0.8 mi WNW 10.4 mph 16.1 mph N/A   Overcast
10:50 AM 33.8 °F 25.8 °F - N/A% 29.70 in 0.2 mi WNW 10.4 mph 19.6 mph N/A Fog Fog
11:10 AM 32.0 °F 22.5 °F - N/A% 29.73 in 0.5 mi WNW 12.7 mph 20.7 mph N/A Fog Fog
11:30 AM 32.0 °F 22.5 °F - N/A% 29.72 in 2.5 mi NW 12.7 mph 18.4 mph N/A   Overcast
12:10 PM 32.0 °F 23.6 °F - N/A% 29.74 in 7.0 mi WNW 10.4 mph 21.9 mph N/A   Overcast
12:30 PM 32.0 °F 24.2 °F - N/A% 29.74 in 4.0 mi WNW 9.2 mph 18.4 mph N/A   Haze
1:10 PM 32.0 °F 24.2 °F - N/A% 29.75 in 4.0 mi NW 9.2 mph 18.4 mph N/A   Haze
1:30 PM 32.0 °F 23.6 °F - N/A% 29.75 in 3.0 mi NW 10.4 mph 19.6 mph N/A   Overcast
1:50 PM 32.0 °F 22.5 °F - N/A% 29.75 in 7.0 mi WNW 12.7 mph 21.9 mph N/A   Overcast
2:10 PM 30.2 °F 21.3 °F - N/A% 29.76 in 0.5 mi WNW 10.4 mph 21.9 mph N/A Fog Light Freezing Fog
2:30 PM 30.2 °F 20.2 °F - N/A% 29.77 in 1.2 mi WNW 12.7 mph 20.7 mph N/A   Overcast
2:50 PM 32.0 °F 23.6 °F - N/A% 29.77 in 4.0 mi WNW 10.4 mph 32.2 mph N/A   Haze
3:10 PM 32.0 °F 22.1 °F 32.0 °F 100% 29.77 in 7.0 mi WNW 13.8 mph 23.0 mph N/A   Overcast
3:30 PM 30.2 °F 20.2 °F 30.2 °F 100% 29.78 in 1.0 mi West 12.7 mph 23.0 mph N/A   Overcast
3:50 PM 30.2 °F 19.8 °F 30.2 °F 100% 29.79 in 0.5 mi West 13.8 mph 19.6 mph N/A Fog Light Freezing Fog
4:10 PM 30.2 °F 19.8 °F - N/A% 29.78 in 0.5 mi WNW 13.8 mph 23.0 mph N/A Fog Light Freezing Fog
4:30 PM 28.4 °F 15.8 °F - N/A% 29.80 in 1.0 mi WNW 18.4 mph 25.3 mph N/A   Overcast
5:10 PM 28.4 °F 18.0 °F - N/A% 29.80 in 0.5 mi WNW 12.7 mph 25.3 mph N/A Fog Light Freezing Fog
5:30 PM 26.6 °F 14.3 °F - N/A% 29.82 in 2.0 mi NW 16.1 mph 32.2 mph N/A   Mist
5:50 PM 28.4 °F 16.6 °F - N/A% 29.82 in 1.2 mi WNW 16.1 mph 26.5 mph N/A   Overcast
6:10 PM 26.6 °F 17.5 °F - N/A% 29.83 in 1.8 mi WNW 9.2 mph 21.9 mph N/A   Overcast
6:30 PM 26.6 °F 14.3 °F - N/A% 29.83 in 7.0 mi WNW 16.1 mph 26.5 mph N/A   Overcast
6:50 PM 26.6 °F 13.8 °F - N/A% 29.86 in 7.0 mi WNW 17.3 mph 28.8 mph N/A   Overcast
7:10 PM 26.6 °F 15.2 °F 26.6 °F 100% 29.88 in 5.0 mi WNW 13.8 mph 27.6 mph N/A   Overcast
7:30 PM 24.8 °F 14.0 °F 24.8 °F 100% 29.90 in 3.0 mi WNW 11.5 mph 28.8 mph N/A   Overcast
7:50 PM 24.8 °F 14.0 °F 24.8 °F 100% 29.90 in 7.0 mi WNW 11.5 mph 21.9 mph N/A   Overcast
8:10 PM 23.0 °F 10.1 °F 23.0 °F 100% 29.91 in 5.0 mi WNW 15.0 mph 25.3 mph N/A   Overcast
8:30 PM 23.0 °F 11.7 °F 23.0 °F 100% 29.93 in 2.5 mi WNW 11.5 mph 24.2 mph N/A   Overcast
9:10 PM 23.0 °F 10.6 °F 23.0 °F 100% 29.95 in 1.2 mi NW 13.8 mph 26.5 mph N/A   Overcast
9:30 PM 21.2 °F 8.9 °F 21.2 °F 100% 29.97 in 3.0 mi NW 12.7 mph 28.8 mph N/A   Overcast
9:50 PM 21.2 °F 8.3 °F 21.2 °F 100% 29.99 in 3.0 mi WNW 13.8 mph 20.7 mph N/A   Overcast
10:10 PM 21.2 °F 7.3 °F 21.2 °F 100% 30.00 in 1.2 mi NW 16.1 mph 25.3 mph N/A   Overcast
10:30 PM 21.2 °F 9.5 °F 21.2 °F 100% 30.01 in 2.5 mi NW 11.5 mph 23.0 mph N/A   Overcast
10:50 PM 21.2 °F 7.8 °F 21.2 °F 100% 30.01 in 10.0 mi WNW 15.0 mph 25.3 mph N/A   Overcast
11:10 PM 21.2 °F 8.3 °F 21.2 °F 100% 30.00 in 7.0 mi WNW 13.8 mph 27.6 mph N/A   Mostly Cloudy
11:30 PM 21.2 °F 8.3 °F 19.4 °F 93% 30.01 in 4.0 mi NW 13.8 mph 25.3 mph N/A   Overcast
11:50 PM 21.2 °F 10.9 °F 21.2 °F 100% 30.01 in 3.0 mi NW 9.2 mph 20.7 mph N/A   Overcast